(280938) = 2002 FL14 = 2006 BG73

Discovered at Kitt Peak on 2006-01-23 by Spacewatch.

Orbit

Orbit type: Main Belt

Note: WebGL enabled browser required.

epoch2023-02-25.0
epoch JD2460000.5
perihelion date2020-01-24.46300
perihelion JD2458872.96300
argument of perihelion (°)251.72623
ascending node (°)9.83021
inclination (°)4.20732
eccentricity0.2318226
perihelion distance (AU)2.0204129
Tisserand w.r.t. Jupiter3.4
ΔV w.r.t. Earth (km/sec)9.1
semimajor axis (AU)2.6301383
mean anomaly (°)260.53542
mean daily motion (°/day)0.23106600
aphelion distance (AU)3.240
period (years)4.27
P-vector [x]-0.14727204
P-vector [y]-0.87751266
P-vector [z]-0.45637976
Q-vector [x]0.98901671
Q-vector [y]-0.12480411
Q-vector [z]-0.07918258
absolute magnitude16.76
phase slope0.15
uncertainty0
referenceMPEC 2023-F16
observations used348
oppositions14
arc length (days)9981
first opposition used1995
last opposition used2023
residual rms (arc-secs)0.79
perturbers coarse indicatorM-v
perturbers precise indicator003Ek
first observation date used1995-11-16.0
last observation date used2023-03-15.0
computer nameMPCLINUX
Minimum Orbit Intersection Distances (in AU)
for orbit epoch: 2460000.5, reference: E2023-F16
Mercury1.55394
Venus1.29624
Earth1.00961
Mars0.52781
Jupiter1.85635
Saturn5.84507
Uranus15.609
Neptune26.7562

Observations

361 total observations over interval: 1995 11 16.12561 – 2023 03 15.269501
These data are available for download (format description).

Date (UT) J2000 RA J2000 Dec Magn Location Ref
1995 11 16.12561 01 55 44.43 +14 56 57.6   691 – Steward Observatory, Kitt Peak-Spacewatch MPS 163932
1995 11 16.14735 01 55 43.34 +14 56 53.1   691 – Steward Observatory, Kitt Peak-Spacewatch MPS 163932
1995 11 16.16891 01 55 42.31 +14 56 48.9 21.6 V 691 – Steward Observatory, Kitt Peak-Spacewatch MPS 163932
1998 04 22.16069 13 05 41.41 -08 58 46.6 19.4   704 – Lincoln Laboratory ETS, New Mexico MPS 213151
1998 04 22.17949 13 05 40.55 -08 58 42.6 19.7   704 – Lincoln Laboratory ETS, New Mexico MPS 213151
1998 04 22.19828 13 05 39.19 -08 58 40.2 19.7   704 – Lincoln Laboratory ETS, New Mexico MPS 213151
2002 03 16.25192 10 51 30.04 +10 18 54.1 20.5   704 – Lincoln Laboratory ETS, New Mexico MPS 55055
2002 03 16.26533 10 51 29.23 +10 18 57.2 20.2   704 – Lincoln Laboratory ETS, New Mexico MPS 55055
2002 03 16.27874 10 51 28.53 +10 18 58.9 19.9   704 – Lincoln Laboratory ETS, New Mexico MPS 55055
2002 03 16.29220 10 51 27.76 +10 19 01.5 19.7   704 – Lincoln Laboratory ETS, New Mexico MPS 55055
2002 03 20.19712 10 47 55.06 +10 32 36.4 20.3 V 691 – Steward Observatory, Kitt Peak-Spacewatch MPS 55055
2002 03 20.21867 10 47 53.85 +10 32 40.7 20.4 V 691 – Steward Observatory, Kitt Peak-Spacewatch MPS 55055
2002 03 20.24010 10 47 52.69 +10 32 45.0 20.6 V 691 – Steward Observatory, Kitt Peak-Spacewatch MPS 55055
2003 08 22.26846 23 20 12.04 -08 16 33.8 19.6   644 – Palomar Mountain/NEAT MPS 213151
2003 08 22.31053 23 20 09.87 -08 16 43.7 19.7   644 – Palomar Mountain/NEAT MPS 213151
2003 08 22.35120 23 20 07.77 -08 16 53.1 19.9   644 – Palomar Mountain/NEAT MPS 213151
2003 09 21.22098 22 53 13.28 -10 02 12.5 20.5 V 691 – Steward Observatory, Kitt Peak-Spacewatch MPS 163932
2003 09 21.25044 22 53 11.82 -10 02 16.7 20.4 V 691 – Steward Observatory, Kitt Peak-Spacewatch MPS 163932
2003 09 21.27663 22 53 10.50 -10 02 20.3 20.3 V 691 – Steward Observatory, Kitt Peak-Spacewatch MPS 163932
2006 01 23.24274 09 41 35.14 +19 18 38.5 20.8 V 691 – Steward Observatory, Kitt Peak-Spacewatch MPS 161968
2006 01 23.24521 09 41 35.00 +19 18 39.1 20.8 V 691 – Steward Observatory, Kitt Peak-Spacewatch MPS 161968
2006 01 23.26008 09 41 34.27 +19 18 43.2 20.7 V 691 – Steward Observatory, Kitt Peak-Spacewatch MPS 161968
2006 01 23.26256 09 41 34.14 +19 18 43.3 20.6 V 691 – Steward Observatory, Kitt Peak-Spacewatch MPS 161968
2006 01 23.27749 09 41 33.38 +19 18 47.4 20.9 V 691 – Steward Observatory, Kitt Peak-Spacewatch MPS 161968
2006 01 23.27997 09 41 33.24 +19 18 48.3 20.7 V 691 – Steward Observatory, Kitt Peak-Spacewatch MPS 161968
2006 01 27.22887 09 38 08.82 +19 35 39.4   691 – Steward Observatory, Kitt Peak-Spacewatch MPS 161968
2006 01 27.23134 09 38 08.68 +19 35 39.8   691 – Steward Observatory, Kitt Peak-Spacewatch MPS 161968
2006 01 27.24615 09 38 07.86 +19 35 43.7   691 – Steward Observatory, Kitt Peak-Spacewatch MPS 161968
2006 01 27.24862 09 38 07.73 +19 35 44.4   691 – Steward Observatory, Kitt Peak-Spacewatch MPS 161968
2006 01 27.26347 09 38 06.91 +19 35 48.1   691 – Steward Observatory, Kitt Peak-Spacewatch MPS 161968
2006 01 27.26595 09 38 06.76 +19 35 48.9   691 – Steward Observatory, Kitt Peak-Spacewatch MPS 161968
2006 01 31.23802 09 34 26.59 +19 52 49.9 20.4 V 691 – Steward Observatory, Kitt Peak-Spacewatch MPS 161968
2006 01 31.25536 09 34 25.58 +19 52 54.4 20.4 V 691 – Steward Observatory, Kitt Peak-Spacewatch MPS 161968
2006 01 31.27261 09 34 24.55 +19 52 59.0 20.2 V 691 – Steward Observatory, Kitt Peak-Spacewatch MPS 161968
2006 02 04.24381 09 30 33.59 +20 09 40.9 20.8 V 691 – Steward Observatory, Kitt Peak-Spacewatch MPS 162915
2006 02 04.26117 09 30 32.52 +20 09 45.3 20.4 V 691 – Steward Observatory, Kitt Peak-Spacewatch MPS 162915
2006 02 04.27843 09 30 31.48 +20 09 49.8 20.3 V 691 – Steward Observatory, Kitt Peak-Spacewatch MPS 162915
2006 03 03.15607 09 04 58.48 +21 30 31.9   291 – LPL/Spacewatch II MPS 165161
2006 03 03.16183 09 04 58.20 +21 30 32.7   291 – LPL/Spacewatch II MPS 165161
2006 03 03.16865 09 04 57.89 +21 30 33.3   291 – LPL/Spacewatch II MPS 165161
2007 06 22.62868 20 44 32.20 -25 48 20.4 19.4 V E12 – Siding Spring Survey MPS 211384
2007 06 22.63840 20 44 31.95 -25 48 21.2 18.8 V E12 – Siding Spring Survey MPS 211384
2007 06 22.64849 20 44 31.88 -25 48 23.4 19.1 V E12 – Siding Spring Survey MPS 211384
2007 06 22.65847 20 44 31.59 -25 48 25.2 19.1 V E12 – Siding Spring Survey MPS 211384
2007 06 25.74480 20 43 31.00 -25 57 24.1 21.1 R D35 – Lulin Observatory MPS 211384
2007 06 25.75824 20 43 30.64 -25 57 26.7 20.5 R D35 – Lulin Observatory MPS 211384
2007 06 25.77855 20 43 30.10 -25 57 30.6 19.4 R D35 – Lulin Observatory MPS 211384
2007 08 08.20647 20 08 40.10 -27 23 46.5 18.9   704 – Lincoln Laboratory ETS, New Mexico MPS 212627
2007 08 08.21876 20 08 39.52 -27 23 45.7 19.3   704 – Lincoln Laboratory ETS, New Mexico MPS 212627
2007 08 08.23096 20 08 38.95 -27 23 45.7 19.5   704 – Lincoln Laboratory ETS, New Mexico MPS 212627
2007 08 08.24315 20 08 38.34 -27 23 45.4 19.2   704 – Lincoln Laboratory ETS, New Mexico MPS 212627
2007 08 08.25531 20 08 37.82 -27 23 45.4 19.2   704 – Lincoln Laboratory ETS, New Mexico MPS 212627
2010 01 14.18027 08 07 53.48 +26 15 54.5   691 – Steward Observatory, Kitt Peak-Spacewatch MPS 310218
2010 01 14.19797 08 07 52.36 +26 15 57.9   691 – Steward Observatory, Kitt Peak-Spacewatch MPS 310218
2010 01 14.21567 08 07 51.25 +26 16 01.1   691 – Steward Observatory, Kitt Peak-Spacewatch MPS 310218
2011 05 10.29218 16 08 52.53 -27 04 09.7 19.2   704 – Lincoln Laboratory ETS, New Mexico MPS 382165
2011 05 10.30236 16 08 52.04 -27 04 11.1 19.6   704 – Lincoln Laboratory ETS, New Mexico MPS 382165
2011 05 10.31251 16 08 51.48 -27 04 12.2 19.5   704 – Lincoln Laboratory ETS, New Mexico MPS 382165
2011 05 10.32286 16 08 50.98 -27 04 12.8 19.5   704 – Lincoln Laboratory ETS, New Mexico MPS 382165
2011 05 10.33295 16 08 50.54 -27 04 13.6 19.6   704 – Lincoln Laboratory ETS, New Mexico MPS 382165
2011 05 14.36376 16 05 33.74 -27 09 07.6 19.0 R 926 – Tenagra II Observatory, Nogales MPS 383031
2011 05 14.37574 16 05 33.06 -27 09 08.5 18.7 R 926 – Tenagra II Observatory, Nogales MPS 383031
2011 05 14.38986 16 05 32.29 -27 09 10.0 18.9 R 926 – Tenagra II Observatory, Nogales MPS 383031
2011 05 23.30015 15 57 30.09 -27 12 26.2 18.4 V G96 – Mt. Lemmon Survey MPS 383306
2011 05 23.30819 15 57 29.59 -27 12 26.8 18.2 V G96 – Mt. Lemmon Survey MPS 383306
2011 05 23.31625 15 57 29.12 -27 12 26.2 18.4 V G96 – Mt. Lemmon Survey MPS 383306
2011 05 23.32435 15 57 28.65 -27 12 26.0 18.2 V G96 – Mt. Lemmon Survey MPS 383306
2011 06 02.58550 15 48 05.29 -27 04 18.3 17.9 V E12 – Siding Spring Survey MPS 383991
2011 06 02.61143 15 48 03.85 -27 04 13.7 18.8 V E12 – Siding Spring Survey MPS 383991
2011 06 02.62438 15 48 03.16 -27 04 12.4 18.7 V E12 – Siding Spring Survey MPS 383991
2011 06 07.40142 15 44 08.008 -26 57 23.12 19.0 w F51 – Pan-STARRS 1, Haleakala MPS 384670
2011 06 07.41559 15 44 07.301 -26 57 21.66 19.0 w F51 – Pan-STARRS 1, Haleakala MPS 384670
2011 06 07.42975 15 44 06.594 -26 57 20.25 19.0 w F51 – Pan-STARRS 1, Haleakala MPS 384670
2011 06 08.34481 15 43 25.137 -26 55 51.18 18.8 i F51 – Pan-STARRS 1, Haleakala MPS 384670
2011 06 08.37906 15 43 23.474 -26 55 47.85 19.0 r F51 – Pan-STARRS 1, Haleakala MPS 384670
2011 06 08.39418 15 43 22.739 -26 55 46.30 18.9 r F51 – Pan-STARRS 1, Haleakala MPS 384670
2012 10 11.355432 02 12 19.353 +15 34 32.90 21.2 w F51 – Pan-STARRS 1, Haleakala MPS 437731
2012 10 11.370416 02 12 18.533 +15 34 29.77 21.0 w F51 – Pan-STARRS 1, Haleakala MPS 437731
2012 10 11.385394 02 12 17.707 +15 34 27.22 21.1 w F51 – Pan-STARRS 1, Haleakala MPS 437731
2012 10 11.400458 02 12 16.889 +15 34 24.31 21.0 w F51 – Pan-STARRS 1, Haleakala MPS 437731
2012 10 20.19397 02 04 07.30 +15 03 57.3 20.9 V 691 – Steward Observatory, Kitt Peak-Spacewatch MPS 439355
2012 10 20.21163 02 04 06.28 +15 03 53.8 21.0 V 691 – Steward Observatory, Kitt Peak-Spacewatch MPS 439355
2012 10 20.22931 02 04 05.21 +15 03 50.2 20.9 V 691 – Steward Observatory, Kitt Peak-Spacewatch MPS 439355
2012 11 02.321557 01 51 47.805 +14 12 01.81 20.7 i F51 – Pan-STARRS 1, Haleakala MPS 441473
2012 11 02.333720 01 51 47.144 +14 11 59.29 20.8 i F51 – Pan-STARRS 1, Haleakala MPS 441473
2012 11 07.290077 01 47 28.387 +13 52 17.88 21.0 w F51 – Pan-STARRS 1, Haleakala MPS 441473
2012 11 07.304147 01 47 27.646 +13 52 14.62 21.0 w F51 – Pan-STARRS 1, Haleakala MPS 441473
